www.pogodaiklimat.ru

Погода и климат >> Архив погоды >> Россия >> Ростовская область >> Зимовники


ПОГОДА в Зимовниках

  • Прогноз погоды в Зимовниках
  • Монитор погоды в Зимовниках

АРХИВ ПОГОДЫ в Зимовниках

Время (UTC), дата Ветер
(напр.,м/с)
 
Видим.   Явления Облачность Т
(С)
Тd
(С)
f
(%)
Тe
(С)
Тes
(С)
Комфортность P
(гПа)
Po
(гПа)
Тmin
(С)
Tmax
(С)
R
(мм)
R24
(мм)
S
(см)
09 9.07 З 5-11
{11}
10 км 6/6 1000 м
[Cu med, cong]
+28.2 +13.7 41 +30 +34 жарко 1005.7 997.5
12 9.07 З 4
{12}
10 км 6/6 1000 м
[Cu med, cong]
+28.5 +8.7 29 +28 +32 жарко 1006.3 998.1
15 9.07 З 4
{12}
10 км 3/3 1000 м
[Cu hum]
+27.4 +5.0 24 +26 +27 жарко 1007.2 999.1 +30.2
18 9.07 З 2 10 км 6/0
[Ac trans]
+22.7 +6.0 34 +23 +23 комфорт 1008.6 1000.3
21 9.07 З 2 10 км ясно +19.5 +7.6 46 +21 +21 комфорт 1009.3 1000.9
00 10.07 ЮЗ 1 10 км ясно +15.8 +7.5 58 +17 +17 1009.3 1000.8
03 10.07 ЮЗ 1 10 км 3/0
[Cc]
+16.2 +8.4 60 +17 +19 1009.2 1000.7 +14.6
06 10.07 З 2 10 км 8/0
[Ac As]
+23.7 +5.6 31 +24 +28 комфорт 1008.7 1000.4
09 10.07 СЗ 1
{10}
10 км слаб. ливневой дождь 10/4 600 м
[Cb cap Ac und]
+19.8 +10.5 55 +22 +26 комфорт 1009.3 1000.9
12 10.07 З 1 10 км {ливн. осадки} 10/3 600 м
[Cb cap Ac und]
+23.2 +6.0 33 +24 +27 комфорт 1008.1 999.8
15 10.07 ЮЗ 3 10 км 9/3 600 м
[Cb cap Ac As]
+23.3 +6.5 34 +24 +24 комфорт 1007.3 999.0 +26.0 0.0
18 10.07 ЮЗ 1 10 км 8/0
[Ac trans Ci fib]
+20.3 +8.3 46 +23 +23 комфорт 1007.8 999.4
21 10.07 штиль 0 10 км 8/0
[Ac trans]
+17.6 +8.7 56 +18 +18 1007.3 998.8
00 11.07 штиль 0 10 км 9/0
[Ac trans]
+17.7 +8.8 56 +18 +18 1007.1 998.6
03 11.07 Ю 1 10 км слаб. ливневой дождь 10/4 600 м
[Cb cap Ac und]
+16.7 +12.4 76 +18 +18 1007.1 998.6 +16.7 0.0
06 11.07 ЮВ 1 10 км в посл. час ливневой дождь 10/4 600 м
[Cb cap Ac und]
+18.4 +15.1 81 +20 +22 1007.4 999.0 +16.4
09 11.07 ЮВ 2 10 км {ливн. осадки} 10/0
[Ac und]
+20.7 +14.3 67 +24 +29 комфорт 1006.4 998.1
12 11.07 штиль 0 10 км слаб. ливневой дождь 10/6 600 м
[Cb cap Ac und]
+18.4 +16.0 86 +19 +21 1006.8 998.4
15 11.07 С 1 10 км слаб. ливневой дождь 10/6 600 м
[Cb cap Ac und]
+16.8 +14.6 87 +18 +18 1007.0 998.5 +22.6 4
18 11.07 С 1 10 км {ливн. осадки} 10/4 600 м
[Cb cap Ac und]
+15.5 +13.9 90 +16 +16 1006.7 998.2
21 11.07 С 1 4000 м дымка 10/4 600 м
[Cb cap Ac und]
+15.7 +14.4 92 +16 +16 1006.8 998.3
00 12.07 С 1 4000 м слаб. ливневой дождь 10/8 600 м
[Cb cap Ac und]
+15.6 +14.5 93 +16 +16 1006.1 997.7
03 12.07 СЗ 1 4000 м слаб. ливневой дождь 10/8 600 м
[Cb cap Ac und]
+15.1 +14.3 95 +16 +16 1006.3 997.8 +15.0 5
06 12.07 С 2 4000 м слаб. ливневой дождь 10/6 600 м
[Cb cap Ac und]
+16.3 +15.2 93 +16 +18 1006.6 998.2
09 12.07 С 2 10 км в посл. час ливневой дождь 10/4 600 м
[Cb cap Ac und]
+16.6 +15.0 90 +17 +20 1007.7 999.2
12 12.07 С 3 10 км {ливн. осадки} 8/6 1000 м
[Cu med, cong Ci fib]
+22.1 +12.6 55 +25 +28 комфорт 1008.0 999.7
15 12.07 СЗ 2 10 км 5/3 1000 м
[Cu hum Ac trans]
+22.9 +10.7 46 +25 +26 комфорт 1008.1 999.8 +23.4 5
18 12.07 ЮВ 1 10 км 8/0
[Ac trans Cc]
+17.2 +13.7 80 +18 +18 1009.0 1000.5
21 12.07 Ю 1 10 км 1/0
[Cc]
+15.7 +13.9 89 +16 +16 1009.0 1000.5
00 13.07 ЮВ 1 4000 м дымка ясно +14.2 +12.9 92 +14 +14 1008.5 999.9
03 13.07 Ю 1 10 км 10/0
[Cs]
+16.2 +13.1 82 +17 +18 1008.5 1000.0 +14.0
06 13.07 Ю 1 10 км 9/0
[Cs]
+23.3 +14.0 56 +27 +37 душно 1008.7 1000.4
09 13.07 ЮЗ 2 10 км 9/4 600 м
[Cb cap Ac trans]
+26.0 +12.1 42 +27 +33 жарко 1008.3 1000.1
12 13.07 ЮЗ 2
{10}
10 км в посл. час гроза {ливн. осадки} 8/4 600 м
[Cb cap Ac trans]
+25.6 +13.4 47 +28 +32 жарко 1007.9 999.7
15 13.07 В 2
{10}
10 км в посл. час гроза {ливн. осадки} 10/4 600 м
[Cb calv Ac und]
+17.5 +14.7 84 +18 +18 1009.6 1001.2 +26.7 5
18 13.07 В 1 10 км {гроза, ливн. осадки} 9/0
[Ac trans]
+16.3 +14.7 90 +17 +17 1010.3 1001.8
21 13.07 ЮВ 1 4000 м дымка 10/0
[Ac und]
+16.3 +14.8 91 +17 +17 1010.2 1001.7
00 14.07 Ю 1 4000 м дымка 9/0
[Ac trans]
+16.3 +15.0 92 +17 +17 1009.8 1001.3
03 14.07 З 2 10 км 3/0
[Ci fib]
+16.0 +13.7 86 +16 +17 1010.3 1001.8 +14.9
06 14.07 СЗ 1 10 км 4/0
[Ci fib]
+21.8 +13.9 61 +25 +36 комфорт 1010.4 1002.1
09 14.07 СЗ 1 10 км 4/4 1000 м
[Cu med, cong]
+25.5 +10.5 39 +26 +39 жарко 1009.8 1001.5
12 14.07 СЗ 1 10 км 3/3 1000 м
[Cu med, cong]
+27.7 +8.5 30 +28 +37 жарко 1008.8 1000.6
15 14.07 В 2 10 км 4/3 1000 м
[Cu hum Ci fib]
+26.6 +8.1 31 +27 +28 жарко 1008.4 1000.2 +28.1
18 14.07 З 1 10 км 4/0
[Ac trans]
+20.3 +12.8 62 +23 +23 комфорт 1009.4 1001.0
21 14.07 штиль 0 10 км 8/0
[Ac trans Ci fib]
+19.2 +13.9 71 +20 +20 1008.7 1000.3
00 15.07 штиль 0 10 км 10/0
[Ac und]
+16.2 +13.7 85 +16 +16 1008.3 999.8
03 15.07 В 1 10 км 9/0
[Ci fib]
+17.6 +13.9 79 +19 +20 1008.5 1000.0 +15.1
06 15.07 В 2 10 км ясно +25.3 +11.5 42 +27 +37 жарко 1007.8 999.6
09 15.07 В 2 10 км 3/3 1000 м
[Cu hum Ci fib]
+28.8 +9.0 29 +29 +41 жарко 1006.8 998.6
12 15.07 В 3 10 км 9/4 1000 м
[Cu med, cong Ac trans]
+28.9 +8.0 27 +28 +31 жарко 1005.9 997.7
15 15.07 В 2 10 км 10/3 1000 м
[Cu med, cong Ac und]
+28.1 +7.3 27 +27 +28 жарко 1005.8 997.6 +29.7
18 15.07 СВ 3 10 км 10/4 600 м
[Cb cap Ac und]
+25.4 +10.0 38 +26 +26 жарко 1005.9 997.7
21 15.07 Ю 2 4000 м дымка {ливн. осадки} 10/5 600 м
[Cb cap Ac und]
+20.3 +15.5 74 +24 +24 комфорт 1007.5 999.1
00 16.07 З 1 4000 м дымка {ливн. осадки} 10/5 600 м
[Cb cap Ac und]
+18.1 +16.7 92 +19 +19 1006.4 998.0
03 16.07 В 2 10 км 10/3 600 м
[Cb cap Ac und]
+18.8 +16.0 84 +20 +21 1007.1 998.8 +18.1 1
06 16.07 В 5 10 км 9/0
[Ac trans Cs]
+21.4 +14.1 63 +24 +28 комфорт 1007.0 998.7

 

Местоположение метеостанции Зимовники (Ростовская область, Россия): широта 47.15 долгота 42.48 высота над уровнем моря 72 м.

В архиве по умолчанию представлена погода в Зимовниках за последнюю неделю. Архивные данные за месяц целиком и за предыдущие месяцы, начиная с января 2011 года, Вы можете получить, выбрав интересующий диапазон дат из раскрывающегося списка и нажав кнопку "Ввод!".


*Определитесь, кто Вы:
робот инопланетянин человек

Внимание! Время в таблицах - всемирное. Для получения местного времени необходимо прибавить поправку, которая равна 3 ч.

Смотрите также архив погоды в соседних городах и на ближайших метеорологических станциях:

Погода в Цимлянске (Ростовская область, Россия) (60 км)
Погода в Котельниково (Волгоградская область, Россия) (73 км)
Погода в Гиганте (Ростовская область, Россия) (111 км)
Погода в Ремонтном (Ростовская область, Россия) (111 км)
Погода в Константиновске (Ростовская область, Россия) (114 км)
Погода в Городовиковске (Калмыкия, Россия) (126 км)
Погода в Семикаракорске (Ростовская область, Россия) (131 км)
Погода в Нижнем Чире (Волгоградская область, Россия) (140 км)
Погода в Морозовске (Ростовская область, Россия) (141 км)
Погода в Дивном (Ставропольский край, Россия) (152 км)

Пояснения к столбцам:

Ветер - указаны скорость ветра в м/с - средняя за 10 мин, порывы в срок и между сроками (в фигурных скобках) и направление, откуда дует ветер: С - северный, СВ - северо-восточный, В - восточный, ЮВ - юго-восточный, Ю - южный, ЮЗ - юго-западный, З - западный, СЗ - северо-западный.
Видимость - горизонтальная дальность видимости в метрах или километрах. При видимости от 1 до 10 км при отсутствии осадков обычно наблюдается дымка, при ухудшении видимости до 1 км и менее - туман. В сухую погоду видимость может ухудшаться дымом, пылью или мглою.
Явления - указаны атмосферные явления, наблюдавшиеся в срок или в последний час перед сроком; фигурными скобками обозначены явления, наблюдавшиеся между сроками (за 1-3 часа до срока); квадратными скобками обозначены град или гололедные отложения с указанием их диаметра в мм.
Облачность - указаны через наклонную черту общая и нижняя облачность в баллах и высота нижней границы облаков в метрах; квадратными скобками обозначены формы облаков: Ci - перистые, Cs - перисто-слоистые, Cc - перисто-кучевые, Ac - высококучевые, As - высокослоистые, Sc - слоисто-кучевые, Ns - слоисто-дождевые, Cu - кучевые, Cb - кучево-дождевые. Подробнее классификацию облаков см. в Атласе облаков (PDF).
T - Температура воздуха - температура, измеренная на высоте 2 м над землей.
Td - Температура точки росы - температура, при понижении до которой содержащийся в воздухе водяной пар достигнет насыщения.
f - Относительная влажность воздуха - влажноcть воздуха, измеренная на высоте 2 м над землей.
Te - Эффективная температура - температура, которую ощущает одетый по сезону человек в тени. Характеристика душности погоды. При расчете учитывается влияние влажности воздуха и скорости ветра на теплоощущения человека.
Tes - Эффективная температура на солнце - температура, которую ощущает человек, с поправкой на солнечный нагрев. Характеристика знойности погоды. Зависит от высоты солнца над горизонтом, облачности и скорости ветра. Ночью, в пасмурную погоду, а также при ветре 12 м/с и более поправка равна нулю.
P - Атмосферное давление - приведенное к уровню моря атмосферное давление.
Po - Атмосферное давление - измеренное на уровне метеостанции атмосферное давление.
Tmin - Минимальная температура - минимум температуры воздуха на высоте 2 м над землей.
Tmax - Максимальная температура - максимум температуры воздуха на высоте 2 м над землей.
R - Количество осадков - Количество выпавших осадков за период времени, мм. При наведении курсора мыши на число - период времени, за который выпало указанное количество осадков.
R24 - Количество осадков - Количество выпавших осадков за 24 часа, мм.
S - Снежный покров - Высота снежного покрова, см. При наведении курсора мыши на число - состояние снежного покрова и степень покрытия местности в баллах.